Hourly Data Report for March 12, 2020

All times are specified in Local Standard Time (LST). Add 1 hour to adjust for Daylight Saving Time where and when it is observed.

OTTAWA INTL A
ONTARIO
Current Station Operator: NAVCAN

45°19'00.000" N
75°40'00.000" W
114.90 m
6106001
71628
YOW

Download Data

Hourly Data (March 2020)
Hourly Data Report for March 12, 2020
TIME Temp Definition
°C
Dew Point Definition
°C
Rel Hum Definition
%
Wind Dir Definition
10's deg

Wind Spd Definition
km/h
Visibility Definition
km
Stn Press Definition
kPa
Hmdx Definition


Wind Chill Definition


Weather Definition


00:00 -2.9 -8.5 66 7 7 24.1 100.69   -6 LegendNANA
01:00 -3.0 -8.8 65 5 12 24.1 100.63   -7 Cloudy
02:00 -3.1 -8.7 65 6 18 24.1 100.59   -9 LegendNANA
03:00 -3.1 -8.8 65 6 15 24.1 100.59   -8 LegendNANA
04:00 -3.2 -8.9 65 7 14 24.1 100.61   -8 Cloudy
05:00 -3.3 -8.6 67 7 13 24.1 100.64   -8 LegendNANA
06:00 -3.3 -8.4 68 7 14 24.1 100.67   -8 LegendNANA
07:00 -3.3 -8.4 68 6 19 24.1 100.70   -9 Cloudy
08:00 -3.2 -7.9 70 7 17 24.1 100.72   -9 LegendNANA
09:00 -2.7 -7.9 67 9 24 24.1 100.73   -9 LegendNANA
10:00 -1.7 -7.3 65 8 21 24.1 100.67   -8 Mostly Cloudy
11:00 -1.4 -7.0 66 9 25 24.1 100.63   -8 LegendNANA
12:00 -0.4 -6.3 64 10 21 24.1 100.63   -6 LegendNANA
13:00 0.4 -6.1 62 8 15 24.1 100.62     Mostly Cloudy
14:00 1.1 -5.6 61 10 18 24.1 100.55     LegendNANA
15:00 1.4 -5.6 60 10 19 24.1 100.49     LegendNANA
16:00 1.6 -5.0 62 10 20 24.1 100.49     Mainly Clear
17:00 1.7 -5.2 60 9 23 24.1 100.44     LegendNANA
18:00 1.1 -4.8 65 7 19 24.1 100.40     LegendNANA
19:00 0.6 -4.7 68 5 16 24.1 100.35     Mostly Cloudy
20:00 0.3 -4.9 68 7 18 24.1 100.32     LegendNANA
21:00 0.0 -5.0 70 8 23 24.1 100.19   -6 LegendNANA
22:00 -0.3 -5.0 71 8 25 24.1 100.04   -6 Mostly Cloudy
23:00 -0.3 -4.5 73 8 23 24.1 99.98   -6 LegendNANA

Notes on Data Quality.

Legend

  • E = Estimated
  • M = Missing
  • NA = Not Available*
  • [empty] = Indicates an unobserved value
Date modified: